TimePST,TemperatureF,Dew PointF,Humidity,Sea Level PressureIn,VisibilityMPH,Wind Direction,Wind SpeedMPH,Gust SpeedMPH,PrecipitationIn,Events,Conditions,WindDirDegrees,DateUTC
12:15 AM,50.0,50.0,100,29.83,-9999.0,South,23.0,32.2,0.01,Rain,Light Rain,190,2013-03-06 08:15:00
12:35 AM,50.0,50.0,100,29.84,-9999.0,SW,12.7,26.5,0.02,Rain,Light Rain,220,2013-03-06 08:35:00
12:55 AM,50.0,50.0,100,29.84,2.5,South,19.6,26.5,0.03,Rain,Light Rain,190,2013-03-06 08:55:00
1:15 AM,51.8,50.0,94,29.84,8.0,SSW,15.0,27.6,N/A,,Overcast,210,2013-03-06 09:15:00
1:35 AM,51.8,50.0,94,29.84,6.0,SSW,15.0,23.0,N/A,Rain,Light Rain,210,2013-03-06 09:35:00
1:55 AM,51.8,50.0,94,29.85,6.0,SW,13.8,-,N/A,Rain,Light Rain,220,2013-03-06 09:55:00
2:15 AM,51.8,48.2,88,29.85,10.0,SW,17.3,28.8,N/A,,Mostly Cloudy,220,2013-03-06 10:15:00
2:35 AM,51.8,46.4,82,29.85,10.0,SW,20.7,28.8,N/A,,Mostly Cloudy,230,2013-03-06 10:35:00
2:55 AM,51.8,46.4,82,29.86,10.0,West,21.9,28.8,N/A,,Mostly Cloudy,280,2013-03-06 10:55:00
3:15 AM,48.2,48.2,100,29.87,-9999.0,WSW,17.3,34.5,0.04,Rain,Light Rain,240,2013-03-06 11:15:00
3:55 AM,48.2,46.4,93,29.88,10.0,SW,16.1,31.1,0.04,,Partly Cloudy,230,2013-03-06 11:55:00
4:15 AM,50.0,46.4,87,29.89,9.0,WSW,17.3,23.0,N/A,,Scattered Clouds,240,2013-03-06 12:15:00
4:35 AM,48.2,46.4,93,29.90,10.0,WSW,20.7,26.5,N/A,,Partly Cloudy,250,2013-03-06 12:35:00
4:55 AM,48.2,46.4,93,29.90,10.0,West,17.3,23.0,N/A,,Clear,260,2013-03-06 12:55:00
5:15 AM,48.2,44.6,87,29.91,10.0,West,19.6,24.2,N/A,,Clear,270,2013-03-06 13:15:00
5:35 AM,48.2,44.6,87,29.92,10.0,West,13.8,20.7,N/A,,Clear,260,2013-03-06 13:35:00
5:55 AM,48.2,44.6,87,29.93,10.0,West,10.4,19.6,N/A,,Clear,260,2013-03-06 13:55:00
6:15 AM,48.2,44.6,87,29.94,10.0,West,15.0,24.2,N/A,,Clear,270,2013-03-06 14:15:00
6:35 AM,48.2,44.6,87,29.95,10.0,West,12.7,19.6,N/A,,Clear,270,2013-03-06 14:35:00
6:55 AM,48.2,44.6,87,29.97,10.0,West,10.4,18.4,N/A,,Clear,280,2013-03-06 14:55:00
7:15 AM,48.2,42.8,82,29.98,10.0,NNE,5.8,-,N/A,,Clear,20,2013-03-06 15:15:00
7:35 AM,48.2,44.6,87,29.99,10.0,SE,4.6,-,N/A,,Partly Cloudy,140,2013-03-06 15:35:00
7:55 AM,50.0,44.6,82,30.00,10.0,SSE,4.6,-,N/A,,Mostly Cloudy,150,2013-03-06 15:55:00
8:15 AM,50.0,44.6,82,30.01,10.0,SSE,3.5,-,N/A,,Mostly Cloudy,150,2013-03-06 16:15:00
8:35 AM,50.0,44.6,82,30.02,10.0,SSE,3.5,-,N/A,,Mostly Cloudy,150,2013-03-06 16:35:00
8:55 AM,51.8,44.6,76,30.03,10.0,SSW,4.6,-,N/A,,Overcast,200,2013-03-06 16:55:00
9:15 AM,51.8,44.6,76,30.04,10.0,WSW,6.9,-,N/A,,Mostly Cloudy,240,2013-03-06 17:15:00
9:35 AM,53.6,44.6,72,30.04,10.0,SSW,12.7,18.4,N/A,,Mostly Cloudy,210,2013-03-06 17:35:00
9:55 AM,53.6,42.8,67,30.04,10.0,SSW,13.8,-,N/A,,Overcast,210,2013-03-06 17:55:00
10:15 AM,55.4,44.6,67,30.05,10.0,West,10.4,-,N/A,,Mostly Cloudy,260,2013-03-06 18:15:00
10:35 AM,55.4,41.0,58,30.06,10.0,WSW,9.2,-,N/A,,Scattered Clouds,250,2013-03-06 18:35:00
10:55 AM,55.4,41.0,58,30.06,10.0,WSW,8.1,-,N/A,,Partly Cloudy,240,2013-03-06 18:55:00
11:15 AM,53.6,39.2,58,30.07,10.0,WSW,11.5,17.3,N/A,,Clear,250,2013-03-06 19:15:00
11:35 AM,55.4,41.0,58,30.07,10.0,West,13.8,-,N/A,,Scattered Clouds,260,2013-03-06 19:35:00
11:55 AM,53.6,39.2,58,30.07,10.0,West,12.7,18.4,N/A,,Partly Cloudy,270,2013-03-06 19:55:00
12:15 PM,55.4,39.2,54,30.07,10.0,WSW,12.7,20.7,N/A,,Clear,240,2013-03-06 20:15:00
12:35 PM,55.4,41.0,58,30.06,10.0,West,10.4,-,N/A,,Clear,270,2013-03-06 20:35:00
12:55 PM,55.4,39.2,54,30.06,10.0,WSW,10.4,19.6,N/A,,Partly Cloudy,240,2013-03-06 20:55:00
1:15 PM,55.4,41.0,58,30.06,10.0,WSW,12.7,17.3,N/A,,Partly Cloudy,240,2013-03-06 21:15:00
1:35 PM,55.4,39.2,54,30.05,10.0,WSW,13.8,18.4,N/A,,Clear,250,2013-03-06 21:35:00
1:55 PM,55.4,39.2,54,30.05,10.0,SW,11.5,-,N/A,,Clear,230,2013-03-06 21:55:00
2:15 PM,55.4,37.4,51,30.05,10.0,SW,8.1,18.4,N/A,,Clear,230,2013-03-06 22:15:00
2:35 PM,55.4,37.4,51,30.05,10.0,SW,9.2,-,N/A,,Partly Cloudy,230,2013-03-06 22:35:00
2:55 PM,57.2,39.2,51,30.05,10.0,West,8.1,16.1,N/A,,Mostly Cloudy,270,2013-03-06 22:55:00
3:15 PM,57.2,37.4,48,30.05,10.0,West,10.4,-,N/A,,Unknown,260,2013-03-06 23:15:00
3:35 PM,55.4,41.0,58,30.06,10.0,NW,10.4,-,N/A,,Unknown,310,2013-03-06 23:35:00
3:55 PM,55.4,37.4,51,30.06,10.0,WNW,5.8,-,N/A,,Unknown,290,2013-03-06 23:55:00
4:15 PM,55.4,35.6,47,30.05,10.0,West,10.4,-,N/A,,Unknown,270,2013-03-07 00:15:00
4:35 PM,55.4,37.4,51,30.05,10.0,WSW,9.2,-,N/A,,Unknown,250,2013-03-07 00:35:00
4:55 PM,53.6,35.6,51,30.05,10.0,West,9.2,-,N/A,,Unknown,260,2013-03-07 00:55:00
5:15 PM,53.6,35.6,51,30.04,10.0,West,6.9,-,N/A,,Unknown,270,2013-03-07 01:15:00
5:35 PM,53.6,37.4,54,30.04,10.0,West,5.8,-,N/A,,Unknown,260,2013-03-07 01:35:00
5:55 PM,51.8,37.4,58,30.05,10.0,West,6.9,-,N/A,,Unknown,260,2013-03-07 01:55:00
6:15 PM,50.0,39.2,66,30.04,10.0,West,4.6,-,N/A,,Unknown,260,2013-03-07 02:15:00
6:35 PM,48.2,39.2,71,30.04,10.0,West,5.8,-,N/A,,Clear,260,2013-03-07 02:35:00
6:55 PM,48.2,39.2,71,30.04,10.0,West,4.6,-,N/A,,Clear,260,2013-03-07 02:55:00
7:35 PM,46.4,41.0,81,30.04,10.0,Calm,Calm,-,N/A,,Clear,0,2013-03-07 03:35:00
7:55 PM,46.4,41.0,81,30.04,10.0,Calm,Calm,-,N/A,,Clear,0,2013-03-07 03:55:00
8:15 PM,46.4,41.0,81,30.04,10.0,Calm,Calm,-,N/A,,Clear,0,2013-03-07 04:15:00
8:35 PM,44.6,41.0,87,30.04,10.0,NE,4.6,-,N/A,,Clear,40,2013-03-07 04:35:00
8:55 PM,44.6,44.6,100,30.04,10.0,West,3.5,-,N/A,,Clear,280,2013-03-07 04:55:00
9:15 PM,44.6,42.8,93,30.04,10.0,Calm,Calm,-,N/A,,Clear,0,2013-03-07 05:15:00
9:35 PM,42.8,42.8,100,30.04,10.0,NW,3.5,-,N/A,,Clear,310,2013-03-07 05:35:00
9:55 PM,44.6,42.8,93,30.03,10.0,Calm,Calm,-,N/A,,Clear,0,2013-03-07 05:55:00
10:15 PM,41.0,41.0,100,30.03,10.0,SW,3.5,-,N/A,,Clear,220,2013-03-07 06:15:00
10:35 PM,41.0,41.0,100,30.02,10.0,Calm,Calm,-,N/A,,Clear,0,2013-03-07 06:35:00
10:55 PM,39.2,39.2,100,30.02,10.0,Calm,Calm,-,N/A,,Clear,0,2013-03-07 06:55:00
11:15 PM,39.2,39.2,100,30.02,10.0,Calm,Calm,-,N/A,,Clear,0,2013-03-07 07:15:00
11:35 PM,39.2,39.2,100,30.02,10.0,Calm,Calm,-,N/A,,Clear,0,2013-03-07 07:35:00
11:55 PM,37.4,37.4,100,30.02,1.8,Calm,Calm,-,N/A,,Clear,0,2013-03-07 07:55:00